📊 Raw Sensor Data
Showing records 44401 to 44425 of 85,035 total
| ID | Distance (ft) | Battery V | Battery A | Int Temp (°F) | Int Humid (%) | Ext Temp (°F) | Solar V | RSSI | SNR | Time Stamp |
|---|---|---|---|---|---|---|---|---|---|---|
| 40647 | 15.9 | 3.94 | 0 | 46 | 41 | 49 | 4.50 | -69 | 8 | 05/15/2025 06:15 AM |
| 40646 | 15.9 | 3.87 | -26 | 45 | 41 | 47 | 4.50 | -70 | 9 | 05/15/2025 06:00 AM |
| 40645 | 15.9 | 3.88 | -5 | 44 | 41 | 47 | 1.20 | -70 | 8 | 05/15/2025 05:45 AM |
| 40644 | 15.9 | 3.94 | -5 | 44 | 42 | 46 | 0.00 | -70 | 8 | 05/15/2025 05:30 AM |
| 40643 | 15.9 | 3.88 | -5 | 44 | 42 | 46 | 0.00 | -69 | 9 | 05/15/2025 05:15 AM |
| 40642 | 15.9 | 3.88 | -5 | 44 | 42 | 46 | 0.10 | -69 | 8 | 05/15/2025 05:00 AM |
| 40641 | 15.9 | 3.88 | -5 | 44 | 42 | 46 | 0.00 | -69 | 8 | 05/15/2025 04:45 AM |
| 40640 | 15.9 | 3.95 | -5 | 44 | 42 | 47 | 0.00 | -70 | 8 | 05/15/2025 04:30 AM |
| 40639 | 15.9 | 3.88 | -5 | 45 | 42 | 47 | 0.00 | -70 | 8 | 05/15/2025 04:15 AM |
| 40638 | 15.9 | 3.88 | -5 | 45 | 42 | 46 | 0.00 | -69 | 8 | 05/15/2025 04:00 AM |
| 40637 | 15.9 | 3.88 | -5 | 45 | 42 | 47 | 0.00 | -70 | 8 | 05/15/2025 03:45 AM |
| 40636 | 15.9 | 3.88 | -5 | 46 | 42 | 47 | 0.00 | -69 | 5 | 05/15/2025 03:30 AM |
| 40635 | 15.9 | 3.88 | -5 | 46 | 42 | 48 | 0.00 | -69 | 8 | 05/15/2025 03:15 AM |
| 40634 | 15.9 | 3.85 | -5 | 46 | 42 | 49 | 0.00 | -68 | 8 | 05/15/2025 03:00 AM |
| 40633 | 15.9 | 3.88 | -5 | 46 | 43 | 48 | 0.00 | -70 | 9 | 05/15/2025 02:45 AM |
| 40632 | 15.9 | 3.89 | -5 | 46 | 43 | 48 | 0.00 | -69 | 8 | 05/15/2025 02:30 AM |
| 40631 | 15.9 | 3.89 | -5 | 47 | 43 | 49 | 0.00 | -69 | 8 | 05/15/2025 02:15 AM |
| 40630 | 15.9 | 3.89 | -5 | 47 | 43 | 50 | 0.00 | -69 | 8 | 05/15/2025 02:00 AM |
| 40629 | 15.9 | 3.89 | -5 | 48 | 44 | 50 | 0.10 | -69 | 8 | 05/15/2025 01:45 AM |
| 40628 | 15.9 | 3.88 | -5 | 49 | 44 | 49 | 0.00 | -69 | 8 | 05/15/2025 01:30 AM |
| 40627 | 15.9 | 3.95 | -5 | 50 | 44 | 50 | 0.10 | -70 | 8 | 05/15/2025 01:15 AM |
| 40626 | 15.9 | 3.89 | -5 | 52 | 43 | 52 | 0.10 | -69 | 8 | 05/15/2025 01:00 AM |
| 40625 | 15.9 | 3.88 | -5 | 53 | 43 | 55 | 0.00 | -69 | 7 | 05/15/2025 12:45 AM |
| 40624 | 15.8 | 3.88 | -5 | 54 | 43 | 56 | 0.00 | -70 | 8 | 05/15/2025 12:30 AM |
| 40623 | 15.9 | 3.96 | -5 | 54 | 43 | 56 | 0.00 | -70 | 8 | 05/15/2025 12:15 AM |